Weather History for Doha, Qatar

Change the Weather History Date:

Tuesday, October 29, 2013

  Actual Average Record
Temperature  
Mean Temperature 82 °F -  
Max Temperature 88 °F 85 °F 98 °F (2001)
Min Temperature 77 °F 67 °F 73 °F (1996)
Cooling Degree Days 18    
Growing Degree Days 32 (Base 50)    
Moisture  
Dew Point 72 °F    
Average Humidity 69    
Maximum Humidity 89    
Minimum Humidity 55    
Precipitation  
Precipitation 0.00 in 0.00 in - ()
Sea Level Pressure  
Sea Level Pressure 29.92 in    
Wind  
Wind Speed 6 mph ()    
Max Wind Speed 13 mph    
Max Gust Speed -    
Visibility 5.5 miles    
Events      
Averages and records for this station are not official NWS values.
T = Trace of Precipitation, MM = Missing Value Source: Averaged Metar Reports

Daily Weather History Graph

Daily Weather History Graph

Search for Another Location

Airport:

Trip Planner

Search our weather history database for the weather conditions in past years. The results will help you decide how hot, cold, wet, or windy it might be!

Date:

Astronomy

Oct. 29, 2013 Rise Set
Actual Time 5:39 AM AST 4:54 PM AST
Civil Twilight 5:16 AM AST 5:18 PM AST
Nautical Twilight 4:49 AM AST 5:45 PM AST
Astronomical Twilight 4:22 AM AST 6:12 PM AST
Moon 12:39 AM AST (10/29) 1:27 PM AST (10/29)
Length of Visible Light 12h 02m
Length of Day
11h 15m
Waning Crescent, 28% of the Moon is Illuminated
Oct 29
Waning Crescent
Nov 3
New
Nov 10
First Quarter
Nov 17
Full
Nov 25
Last Quarter

Hourly Weather History & Observations

Time (AST) Temp. Heat Index Dew Point Humidity Pressure Visibility Wind Dir Wind Speed Gust Speed Precip Events Conditions
12:00 AM 82.4 °F 90.9 °F 77.0 °F 84% 29.86 in - SE 5.8 mph - N/A   Clear
1:00 AM 80.6 °F 86.2 °F 75.2 °F 84% 29.86 in 5.6 mi SSE 4.6 mph - N/A   Unknown
2:00 AM 80.6 °F 86.2 °F 75.2 °F 84% 29.86 in 5.6 mi Variable 1.2 mph - N/A   Unknown
3:00 AM 80 °F - 76 °F 83% 29.88 in 5 mi SSW 3.5 mph - -   Haze
3:00 AM 80.6 °F 86.2 °F 75.2 °F 84% 29.86 in 5.0 mi SSW 3.5 mph - N/A   Unknown
3:30 AM 78.8 °F - 75.2 °F 89% 29.86 in 4.3 mi South 5.8 mph - N/A   Unknown
4:00 AM 78.8 °F - 75.2 °F 89% 29.89 in 4.3 mi SSW 6.9 mph - N/A   Unknown
4:30 AM 78.8 °F - 75.2 °F 89% 29.89 in 4.3 mi SSW 6.9 mph - N/A   Unknown
5:00 AM 78.8 °F - 75.2 °F 89% 29.89 in 3.7 mi SSW 4.6 mph - N/A   Unknown
6:00 AM 78.8 °F - 75.2 °F 89% 29.92 in 3.1 mi WNW 3.5 mph - N/A   Haze
6:30 AM 80.6 °F 86.2 °F 75.2 °F 84% 29.95 in 3.1 mi NW 4.6 mph - N/A   Haze
7:00 AM 80.6 °F 86.2 °F 75.2 °F 84% 29.95 in 3.7 mi NNW 3.5 mph - N/A   Partly Cloudy
7:30 AM 80.6 °F 86.2 °F 75.2 °F 84% 29.95 in 5.0 mi North 5.8 mph - N/A   Partly Cloudy
8:00 AM 82.4 °F 88.2 °F 73.4 °F 74% 29.95 in 6.2 mi NNW 6.9 mph - N/A   Partly Cloudy
9:00 AM 85 °F - 73 °F 59% 29.98 in 6 mi North 4.6 mph - -   Scattered Clouds
9:00 AM 84.2 °F 90.9 °F 73.4 °F 70% 29.98 in 6.2 mi North 4.6 mph - N/A   Partly Cloudy
9:30 AM 86.0 °F 91.8 °F 71.6 °F 62% 29.95 in 6.2 mi NE 5.8 mph - N/A   Partly Cloudy
10:00 AM 86.0 °F 93.4 °F 73.4 °F 66% 29.95 in 6.2 mi North 4.6 mph - N/A   Partly Cloudy
10:30 AM 86.0 °F 93.4 °F 73.4 °F 66% 29.95 in 6.2 mi NNE 3.5 mph - N/A   Partly Cloudy
11:00 AM 86.0 °F 93.4 °F 73.4 °F 66% 29.92 in 6.2 mi North 6.9 mph - N/A   Partly Cloudy
11:30 AM 87.8 °F 93.8 °F 71.6 °F 58% 29.92 in 6.2 mi North 8.1 mph - N/A   Partly Cloudy
12:00 PM 87.8 °F 95.6 °F 73.4 °F 62% 29.92 in 6.2 mi North 8.1 mph - N/A   Partly Cloudy
12:30 PM 87.8 °F 93.8 °F 71.6 °F 58% 29.89 in 6.2 mi North 8.1 mph - N/A   Partly Cloudy
1:00 PM 87.8 °F 95.6 °F 73.4 °F 62% 29.89 in 6.2 mi NE 8.1 mph - N/A   Partly Cloudy
1:30 PM 87.8 °F 95.6 °F 73.4 °F 62% 29.89 in - ENE 8.1 mph - N/A   Clear
2:00 PM 87.8 °F 93.8 °F 71.6 °F 58% 29.89 in - NE 6.9 mph - N/A   Clear
2:30 PM 87.8 °F 93.8 °F 71.6 °F 58% 29.89 in - ENE 8.1 mph - N/A   Clear
3:00 PM 87 °F - 73 °F 55% 29.89 in 9 mi East 8.1 mph - -  
3:00 PM 87.8 °F 95.6 °F 73.4 °F 62% 29.89 in - East 8.1 mph - N/A   Clear
3:30 PM 86.0 °F 93.4 °F 73.4 °F 66% 29.89 in - East 8.1 mph - N/A   Clear
4:00 PM 86.0 °F 89.4 °F 68.0 °F 55% 29.89 in - NNE 9.2 mph - N/A   Clear
4:30 PM 86.0 °F 90.4 °F 69.8 °F 58% 29.89 in - NNE 9.2 mph - N/A   Clear
5:00 PM 84.2 °F 89.6 °F 71.6 °F 66% 29.89 in - NNE 8.1 mph - N/A   Clear
6:00 PM 84.2 °F 88.4 °F 69.8 °F 62% 29.92 in - North 8.1 mph - N/A   Clear
7:00 PM 82.4 °F 86.3 °F 69.8 °F 66% 29.92 in - North 10.4 mph - N/A   Clear
7:30 PM 82.4 °F 85.4 °F 68.0 °F 62% 29.95 in - North 11.5 mph - N/A   Clear
8:00 PM 82.4 °F 85.4 °F 68.0 °F 62% 29.95 in - NNW 8.1 mph - N/A   Clear
8:30 PM 80.6 °F 83.2 °F 68.0 °F 65% 29.95 in - NNW 12.7 mph - N/A   Clear
9:00 PM 81 °F - 68 °F 56% 29.96 in 7 mi NNW 9.2 mph - -  
9:00 PM 80.6 °F 83.2 °F 68.0 °F 65% 29.95 in - NNW 9.2 mph - N/A   Clear
9:30 PM 80.6 °F 83.2 °F 68.0 °F 65% 29.95 in - NNW 10.4 mph - N/A   Clear
10:00 PM 80.6 °F 83.2 °F 68.0 °F 65% 29.95 in - NNW 11.5 mph - N/A   Clear
10:30 PM 80.6 °F 83.2 °F 68.0 °F 65% 29.95 in - NNW 10.4 mph - N/A   Clear
11:00 PM 80.6 °F 82.7 °F 66.2 °F 61% 29.95 in - NNW 6.9 mph - N/A   Clear
11:30 PM 78.8 °F - 66.2 °F 65% 29.95 in - NNW 8.1 mph - N/A   Clear